Location: Gilevgi
(36.8751°N, 30.0581°E)
Time: 10:15:28
(UTC+00:00)

CZ-2D R/B - Pass Details

Date: 12 March 2026
Orbit: 524 x 594 km, 98.0° (Epoch: 20 April)

Event Time Altitude Azimuth Distance (km) Brightness Sun altitude
Rises 17:25:32 0° 194° (SSW) 2,788 7.0 -17.0°
Reaches altitude 10° 17:27:58 10° 207° (SSW) 1,903 6.3 -17.5°
Maximum altitude 17:31:25 25° 264° (W) 1,198 5.8 -18.2°
Drops below altitude 10° 17:34:54 10° 320° (NW) 1,932 6.8 -18.9°
Sets 17:37:24 0° 334° (NNW) 2,841 7.5 -19.4°
